Meath Environmental Platform

Observations

Time Sensor AQI SAQ Temp °C Hum % Pres Pa CO μg/m³ H₂S μg/m³ NO μg/m³ NO₂ μg/m³ O₃ μg/m³ SO₂ μg/m³ CO₂e PPM VOC PPM PM1 μg/m³ PM2.5 μg/m³ PM4 μg/m³ PM10 μg/m³ TPS µm
Wednesday 12 August 2026
10:13 Trim Market St 2 32.7 46 63,560 0.72 0 0.59 9.83 0 0 2.14 5.23 5.99
10:13 Trim Patrick St 2 28.8 52 70,441 0.2 0 1.17 11.93 36.64 7 7.14 12.33 13.56
10:12 Trim Market St 2 32.5 47 63,114 0.74 0 0.63 12.13 0 0 2.14 5.7 7.53
10:12 Trim Patrick St 2 28.6 54 70,635 0.15 0 1.29 9.85 41.46 4.66 6.29 10.67 11.73
10:11 Trim Market St 2 32.2 48 62,594 0.78 0 0.67 13.36 0 0 3.56 6.19 7.53
10:11 Trim Patrick St 2 28.5 56 70,953 0.15 0 1.4 6.44 21.3 6.28 5.43 11.28 12.41
10:10 Trim Market St 2 32.1 48 62,043 0.76 0 0.67 7.25 0 0 2.85 5.15 6.01
10:10 Trim Patrick St 2 28.3 53 71,395 0.17 0 1.31 2.83 0 4.23 6.29 10.74 11.82
10:09 Trim Market St 2 31.8 48 61,300 0.78 0 0.63 12.88 0 0 2.85 4.6 5.26
10:09 Trim Patrick St 2 28.1 56 71,943 0.16 0 1.36 5.95 30.39 5.4 5.43 9.8 10.78
10:08 Trim Market St 2 31.6 49 60,746 0.77 0 0.66 10.12 8.5 0 2.14 4.57 6.02
10:08 Trim Patrick St 2 27.9 58 72,509 0.15 0 1.45 8.51 28.91 5.16 7.14 11.12 12.23
10:07 Trim Market St 2 31.3 49 59,934 0.75 0 0.72 11.44 3.75 0 2.14 5.06 6.03
10:07 Trim Patrick St 2 27.7 57 73,078 0.15 0 1.33 12.17 28.27 3.54 4.57 9.71 10.68
10:06 Trim Market St 2 31 50 59,223 0.72 0 0.83 12.46 0 0 3.56 5.02 6.78
10:06 Trim Patrick St 2 27.5 57 73,595 0.17 0 1.3 5.08 15.74 5.56 4.57 8.94 9.84
10:05 Trim Patrick St 2 27.3 57 74,288 0.16 0 1.34 12.01 20.6 4.41 7.14 11.22 12.34
10:04 Trim Market St 2 30.3 52 58,688 0.7 0 1 9.24 0 0 4.28 6.98 9
10:04 Trim Patrick St 2 27.1 59 74,732 0.18 0 1.41 10.82 18.54 4.95 6.29 11.04 12.14
10:03 Trim Market St 2 30 53 57,427 0.74 0 1.09 13.54 3.27 0 3.56 5.41 6.8